Wetbulb
56.86 56.82 56.42 56.24 56.26 56.28 56.34 55.77 55.76 56.76 58.00 57.03 55.63 54.23 54.07 53.99 53.54 53.97 55.83 57.37 53.56 53.05 54.67 56.24 57.21 56.46 57.63 57.98 58.14 60.43 59.78 60.01 59.36 56.17 55.66 56.11 55.98 56.60 55.47 56.67 56.11 55.96 55.39 54.06 56.21 53.29 51.26 60.86 60.20 55.98 61.15 63.48 63.34 64.95
56.48 56.22 56.24 56.12 56.22 56.14 56.28 56.02 56.12 56.72 57.56 56.92 55.56 54.31 53.70 53.46 53.25 52.93 55.88 55.80 55.49 50.12 53.51 55.96 57.08 58.32 57.66 58.39 57.83 59.20 59.29 60.47 61.76 57.76 58.23 58.24 54.84 56.72 54.64 52.83 59.10 54.06 57.28 56.34 56.29 57.84 61.79 62.89 62.54 63.79 62.75 64.11 65.60 66.66
55.82 55.78 55.62 55.57 55.65 55.79 55.93 56.14 56.34 57.08 57.34 57.06 55.84 54.69 53.79 53.13 52.99 52.32 56.18 56.13 54.18 51.30 53.44 54.41 56.07 59.83 59.51 56.83 58.94 55.18 60.64 62.45 63.35 63.06 61.33 59.06 54.70 56.63 53.20 54.34 55.38 57.81 58.85 57.84 57.55 59.90 61.11 63.00 63.56 64.36 65.16 65.71 67.23 68.07
54.76 55.00 55.16 55.25 55.33 55.53 55.73 55.97 56.28 56.92 56.94 56.86 55.68 54.64 53.85 53.23 52.77 51.90 55.43 57.02 53.61 51.54 49.33 55.71 59.92 59.33 61.31 60.66 57.45 59.25 59.92 63.68 64.08 62.91 61.65 59.44 54.01 57.83 53.52 56.58 55.15 58.02 59.61 59.55 58.54 61.12 62.07 62.98 63.66 64.46 64.74 66.46 67.25 67.85
54.46 54.75 55.01 55.03 55.32 55.48 55.97 56.20 56.60 56.56 56.70 56.42 55.29 54.13 53.45 53.04 52.59 53.35 55.71 56.36 55.06 51.62 51.89 54.20 58.83 60.24 60.57 60.89 59.04 58.22 58.31 61.27 61.17 58.93 59.02 57.28 60.35 56.97 57.92 55.70 54.87 59.81 60.13 58.09 57.08 62.06 62.77 63.58 65.37 65.08 65.03 65.84 66.96 66.74
54.01 54.19 54.41 54.73 54.93 55.11 55.71 56.46 56.34 56.24 56.36 55.75 54.60 53.78 53.02 52.36 52.05 54.80 52.46 56.35 56.16 54.34 53.45 53.34 59.58 58.22 60.06 59.79 59.69 58.79 58.75 58.34 59.13 57.81 57.72 59.51 58.63 58.08 55.36 54.43 58.89 61.38 61.81 62.69 60.29 62.92 64.02 64.01 65.06 65.40 65.77 65.87 66.12 66.24
54.03 54.24 54.48 54.64 54.98 55.11 55.70 55.92 55.75 55.89 55.57 54.66 53.80 53.02 52.21 51.82 53.34 53.42 51.91 54.23 52.84 56.13 53.39 52.94 56.07 58.00 59.24 59.22 59.54 59.22 59.31 58.78 58.92 58.52 56.98 58.58 59.40 57.28 56.58 54.44 59.68 60.01 61.28 62.10 62.93 63.65 62.06 63.10 63.19 65.06 65.25 65.44 63.69 65.82
53.71 54.15 54.49 54.84 55.30 55.60 55.46 55.35 55.31 55.33 54.32 53.07 52.49 52.05 51.85 51.59 51.53 53.34 56.08 50.80 54.12 53.92 53.66 50.03 53.20 55.11 60.15 57.30 56.61 59.99 57.86 58.31 58.41 59.11 59.11 57.09 59.13 58.48 54.45 59.30 61.06 61.90 61.76 62.08 62.38 63.52 63.63 64.79 64.38 64.03 64.92 64.61 63.46 62.48
53.68 54.05 54.59 54.64 54.73 54.69 54.75 54.79 53.61 52.50 51.70 51.49 51.65 51.48 53.11 52.55 52.99 54.71 54.16 52.90 54.88 52.65 51.11 52.66 51.38 52.34 60.68 59.70 59.83 57.98 59.50 55.57 59.33 56.33 57.10 58.18 55.95 53.96 57.12 59.23 59.92 61.90 61.95 61.63 63.52 62.82 62.97 62.82 62.93 63.10 63.47 63.17 61.97 60.82
53.83 53.95 54.06 54.24 54.18 52.87 51.96 51.33 50.58 50.37 51.09 51.08 51.33 52.24 51.81 54.27 54.03 53.62 54.34 52.93 51.13 51.41 51.78 50.27 55.77 52.87 56.64 59.01 56.62 57.79 57.84 55.98 52.94 56.40 58.89 54.97 54.26 59.50 60.42 61.37 63.75 63.62 63.54 64.14 61.70 61.17 62.03 62.06 62.15 62.39 62.70 62.96 61.97 60.62
53.38 53.24 52.30 51.67 51.25 50.74 50.26 50.24 50.24 50.60 50.91 52.28 50.43 51.09 56.27 52.09 56.44 56.21 52.70 51.15 52.93 49.79 52.46 52.79 53.32 51.76 57.75 53.21 55.70 58.58 56.31 56.33 51.26 54.54 53.87 53.13 53.14 57.99 61.93 62.44 64.18 64.91 64.92 64.39 64.80 64.93 64.93 64.31 62.96 62.36 62.47 62.32 61.46 61.02
50.90 50.72 50.51 50.31 50.31 50.28 50.14 50.20 51.02 51.42 51.91 50.00 50.32 51.96 53.45 54.16 54.01 50.59 50.50 51.85 49.60 49.49 51.98 51.04 54.13 55.52 56.90 56.94 54.99 57.06 54.65 55.82 50.13 57.07 53.75 50.63 56.04 60.99 62.69 62.11 62.21 63.81 63.79 63.83 64.28 64.04 64.39 64.07 63.85 63.23 62.57 61.82 61.55 61.38
49.86 49.88 50.02 50.11 50.01 49.84 49.78 49.96 50.54 50.79 50.85 50.75 48.91 48.25 50.85 52.41 43.12 45.89 45.14 48.19 49.77 53.47 55.30 56.09 54.76 56.72 56.09 55.27 54.54 55.55 52.44 51.84 57.60 52.95 51.12 54.26 62.21 62.81 63.64 62.93 61.64 62.95 63.79 64.32 63.74 64.44 64.32 63.72 63.70 63.18 61.85 62.09 61.59 60.76
49.50 49.34 49.04 48.98 48.98 49.08 49.20 49.68 49.86 50.73 51.98 46.25 44.66 38.36 45.40 47.09 49.12 50.69 51.17 52.30 54.22 56.23 56.57 55.89 55.01 55.62 57.02 52.45 54.75 51.86 55.91 56.41 50.06 48.67 50.45 56.35 63.23 64.13 63.85 64.30 62.69 62.46 63.38 63.55 63.49 63.62 63.22 62.95 62.84 63.04 62.57 62.15 61.15 60.03
49.29 49.02 47.88 48.57 48.60 48.70 49.39 49.95 49.90 52.59 49.29 44.73 45.38 41.58 45.47 52.26 54.36 55.81 55.66 54.52 55.42 57.30 55.40 54.84 55.31 56.23 54.53 51.43 53.34 53.79 51.56 49.06 51.01 50.79 55.72 60.27 63.26 63.34 63.35 63.82 63.73 63.01 63.40 63.48 63.48 62.87 62.45 62.47 62.06 61.80 62.19 61.94 61.46 60.54
48.36 47.96 47.92 48.50 48.68 48.35 49.54 50.41 50.80 50.60 47.43 44.42 43.86 46.49 50.88 49.50 50.90 52.17 53.23 53.93 56.60 55.58 56.38 55.79 53.76 52.09 51.90 52.31 50.40 49.90 49.23 48.89 52.53 57.75 59.89 62.92 64.82 65.00 64.20 63.62 63.99 63.89 63.66 63.27 63.40 63.02 62.77 62.46 61.88 61.33 61.56 61.27 60.63 60.39
47.52 48.79 47.63 48.35 48.57 47.62 49.14 49.56 49.36 45.09 44.59 43.94 42.24 47.50 49.68 50.37 51.07 52.89 54.49 55.21 55.56 53.60 52.14 54.31 49.93 49.58 54.93 50.46 49.58 53.76 52.41 55.08 58.62 60.60 61.27 63.76 64.14 64.30 63.84 63.29 63.46 63.31 62.91 62.88 62.84 62.56 62.47 62.62 61.91 60.78 59.49 60.00 60.05 59.74
47.40 49.00 47.34 48.10 48.61 48.54 50.51 49.92 45.07 44.58 41.71 43.37 44.49 48.61 47.85 50.53 51.10 52.26 53.72 55.30 52.65 53.50 52.98 51.43 53.21 49.87 50.34 48.54 49.92 56.18 58.37 59.95 61.47 61.98 62.66 64.15 64.56 63.45 63.23 62.75 62.32 62.43 62.35 62.29 62.18 62.05 61.69 60.82 60.10 59.56 59.72 59.22 58.36 58.20
47.20 48.78 48.24 48.29 47.58 48.68 46.41 45.46 46.07 41.87 45.77 49.43 49.21 50.17 49.60 50.00 51.63 51.13 51.65 52.68 53.03 53.36 51.56 51.99 49.88 50.20 52.74 57.29 57.33 58.31 59.00 59.13 58.88 60.78 61.95 64.04 63.93 63.22 61.99 62.07 61.99 61.79 61.59 61.60 61.19 60.47 60.67 61.45 60.85 59.55 58.36 57.21 55.66 56.01
47.38 47.65 47.77 47.09 47.66 47.38 44.29 45.70 50.10 44.36 41.93 46.05 47.82 47.22 47.86 48.22 50.39 50.23 50.32 51.15 51.01 50.56 49.15 48.06 49.50 54.33 57.79 59.36 58.19 58.65 59.23 60.09 60.46 59.93 61.04 63.52 63.92 61.75 61.23 61.38 61.06 61.51 60.96 61.01 61.03 56.43 60.32 59.65 59.12 57.83 56.98 56.40 55.91 55.63
46.75 48.70 47.50 48.39 49.24 48.39 45.82 44.12 42.17 44.03 44.05 42.25 45.75 46.35 46.20 48.24 46.64 47.19 47.37 49.96 48.24 47.82 47.90 50.99 52.44 54.96 60.57 58.86 58.50 59.07 59.44 60.45 59.67 60.33 61.13 61.96 62.96 62.92 60.70 61.39 61.47 60.96 60.37 59.90 59.15 58.35 56.31 57.89 57.75 57.34 56.68 56.91 57.35 57.25
48.52 47.29 48.30 48.52 44.85 44.27 43.06 44.57 40.57 44.01 42.37 43.63 44.32 45.63 44.27 44.27 45.57 47.36 49.81 47.18 47.15 48.46 50.39 51.65 53.15 54.01 55.49 58.01 57.84 57.39 59.72 61.62 62.10 61.00 53.72 56.52 60.10 60.03 60.59 60.61 60.31 60.19 60.63 60.63 60.10 58.09 58.21 58.34 58.24 58.14 57.49 58.09 56.33 58.63
47.09 47.11 46.22 43.49 39.30 37.97 37.40 46.34 40.36 41.95 38.56 40.04 44.46 41.74 42.13 44.39 47.41 51.00 45.55 48.02 49.12 52.09 52.93 52.93 53.94 54.97 54.71 56.28 56.94 57.85 58.51 59.94 60.00 61.42 62.74 62.58 61.33 60.02 58.60 59.84 61.41 60.65 60.07 60.15 60.22 59.07 58.92 53.44 55.36 58.21 58.43 58.33 58.69 58.67
45.23 42.23 37.38 37.67 38.09 34.87 41.25 38.69 41.90 40.64 41.24 40.25 40.03 39.30 42.05 45.06 48.09 46.03 43.53 46.99 49.95 52.00 51.66 53.13 52.90 52.48 53.59 54.33 53.52 54.56 56.13 57.70 60.17 61.75 63.09 62.80 61.24 60.83 61.85 62.10 60.93 61.41 62.14 60.59 59.17 59.83 59.59 58.79 54.19 57.96 58.49 58.32 58.48 58.02
36.64 36.10 36.61 33.12 38.51 35.15 34.34 35.07 36.62 37.22 35.35 38.67 37.64 39.37 42.28 45.98 42.36 41.71 42.94 47.29 49.69 51.17 53.13 54.22 53.17 52.61 51.62 52.74 54.16 55.06 57.38 57.35 58.05 59.57 63.36 63.42 62.79 61.37 60.70 61.27 61.63 62.11 63.13 59.87 56.20 57.42 57.86 59.22 58.02 58.06 58.27 58.17 57.61 57.11
30.78 36.13 32.68 34.63 35.12 34.79 35.24 33.36 34.96 35.14 36.67 36.42 38.42 42.28 45.35 42.18 38.58 39.46 45.18 48.63 50.23 53.17 55.33 54.04 53.10 52.45 54.01 54.12 52.92 53.84 55.50 58.08 58.66 59.16 62.42 63.08 62.73 61.87 61.22 60.16 59.69 60.58 63.39 63.18 62.12 59.42 59.32 59.71 58.89 58.22 57.67 54.45 47.94 56.98
30.37 32.11 36.47 41.28 40.09 37.53 36.37 38.93 39.82 37.52 36.37 36.77 40.46 40.90 41.13 36.15 38.59 44.47 49.85 52.16 53.12 55.40 56.49 54.43 54.96 54.58 54.89 56.06 57.17 56.74 56.65 58.10 60.08 60.75 63.33 65.45 63.99 63.64 62.30 60.41 60.61 62.75 63.76 63.49 63.47 62.61 61.41 60.73 59.32 58.24 56.98 55.83 56.41 55.84
35.71 37.25 34.15 36.94 36.85 38.01 35.84 36.63 36.68 36.41 38.33 42.32 42.71 39.54 38.58 40.03 42.39 50.66 53.06 55.30 55.83 55.36 54.96 53.29 55.55 56.55 57.31 57.66 58.07 57.38 56.42 57.97 60.25 61.47 62.51 62.74 63.02 62.61 61.98 62.33 62.51 50.29 62.63 64.56 63.91 63.54 62.83 62.05 60.86 59.52 58.36 57.98 58.59 59.16
35.48 37.61 35.68 33.71 35.72 36.80 36.69 35.36 37.47 42.08 45.78 44.96 41.98 41.73 42.75 48.36 52.32 52.36 52.82 53.67 54.36 54.02 52.93 52.88 55.68 57.05 57.48 57.68 58.05 57.55 57.22 58.19 58.57 57.89 57.38 57.27 58.10 60.00 61.90 61.26 61.28 61.00 61.68 63.57 50.08 56.78 62.52 60.23 60.78 61.82 61.22 60.32 60.77 60.34
38.40 40.76 36.51 36.53 33.64 35.49 39.66 42.63 43.33 45.32 46.89 47.83 48.07 47.62 47.61 48.41 50.53 53.07 52.26 52.68 51.95 52.36 52.48 53.86 55.20 55.83 55.53 55.02 54.92 56.28 58.77 60.97 61.44 59.85 58.38 57.20 57.16 59.88 60.20 60.62 60.65 60.96 61.82 62.79 62.26 61.52 46.85 57.28 55.55 61.09 60.20 60.42 60.08 58.98
42.39 41.51 37.82 37.66 36.81 40.90 41.87 44.55 46.36 47.28 46.81 46.71 48.01 46.55 46.58 47.68 48.64 51.85 51.86 52.69 53.20 53.84 53.31 50.98 54.43 56.44 56.08 55.91 55.39 55.15 53.79 58.08 60.13 58.56 58.21 58.04 59.12 60.26 60.91 61.08 61.86 61.94 61.66 61.84 61.82 59.94 59.51 59.44 59.78 59.21 59.48 59.57 58.80 56.83
41.52 39.90 38.75 37.86 40.36 44.41 45.30 44.51 44.55 43.70 43.39 42.90 43.62 46.17 45.21 44.27 42.83 47.62 54.82 54.74 53.71 52.80 50.21 50.58 51.57 52.64 55.51 58.07 58.48 57.32 48.93 58.25 57.72 58.34 57.23 56.75 57.44 61.07 62.91 62.23 61.66 61.79 62.01 62.01 61.05 61.01 60.85 60.18 59.70 59.29 58.83 58.51 58.08 58.36
40.19 40.15 40.20 40.39 40.67 41.58 44.07 43.23 41.17 41.10 41.15 39.90 41.15 42.77 43.72 44.07 42.95 50.15 55.14 54.67 54.87 52.66 53.27 54.52 54.86 55.58 57.12 58.48 59.12 58.14 53.45 58.99 53.03 46.66 46.10 47.61 50.79 54.27 59.85 61.29 61.64 61.17 60.83 61.25 61.11 60.99 60.45 59.69 58.95 58.74 58.60 58.67 58.89 59.18
MSLP
1013.02 1013.30 1013.65 1013.98 1014.21 1014.39 1014.49 1014.52 1014.53 1014.51 1014.50 1014.58 1014.65 1014.63 1014.55 1014.41 1014.16 1013.70 1012.32 1012.63 1011.91 1009.48 1007.16 1006.43 1005.85 1005.22 1004.62 1004.06 1003.04 1003.07 1002.75 1001.67 1000.71 1000.23 999.76 1000.09 1000.20 1000.61 1000.24 999.96 999.53 998.79 998.20 997.48 997.45 997.49 997.67 998.77 999.47 999.11 999.37 999.72 1000.03 1000.74
1012.48 1012.85 1013.22 1013.53 1013.78 1013.97 1014.03 1014.09 1014.16 1014.15 1014.18 1014.32 1014.44 1014.49 1014.44 1014.37 1014.19 1013.84 1012.06 1012.58 1012.54 1011.16 1007.75 1006.84 1006.09 1005.58 1005.45 1005.22 1005.07 1004.10 1003.08 1001.98 1000.82 1000.30 1000.53 1000.46 1000.49 1001.13 1001.18 1000.29 1000.59 1000.13 999.42 998.41 998.48 997.84 998.87 998.94 999.62 1000.04 999.82 1000.05 1000.79 1001.44
1012.36 1012.61 1012.84 1013.12 1013.37 1013.51 1013.56 1013.65 1013.74 1013.79 1013.86 1014.03 1014.20 1014.29 1014.27 1014.26 1014.16 1013.98 1012.69 1012.46 1011.87 1010.22 1007.14 1005.87 1004.54 1004.53 1004.98 1005.38 1005.79 1005.14 1003.64 1003.17 1002.26 1002.40 1000.81 1000.79 1000.91 1001.27 1000.98 1000.95 1000.96 1000.62 1000.38 999.65 999.53 999.36 999.49 999.85 1000.33 1000.62 1000.74 1000.77 1001.42 1002.26
1012.17 1012.36 1012.57 1012.77 1012.95 1013.05 1013.15 1013.25 1013.36 1013.44 1013.58 1013.71 1013.91 1014.06 1014.08 1014.08 1014.04 1014.01 1012.68 1012.31 1012.07 1010.46 1007.80 1004.17 1004.34 1004.09 1004.27 1005.29 1005.36 1004.97 1004.26 1004.09 1003.34 1002.71 1001.66 1000.86 1001.25 1001.36 1001.07 1001.91 1001.25 1000.54 1000.88 999.92 999.50 999.72 1000.06 1000.37 1000.63 1000.93 1001.61 1001.97 1002.43 1003.23
1011.89 1012.01 1012.17 1012.35 1012.51 1012.63 1012.76 1012.86 1012.95 1013.16 1013.34 1013.49 1013.69 1013.85 1013.89 1013.84 1013.79 1013.40 1012.39 1012.14 1012.16 1011.40 1008.19 1005.17 1003.96 1003.52 1003.75 1003.88 1004.57 1004.85 1004.77 1004.17 1003.27 1002.76 1002.17 1001.84 1001.78 1002.09 1002.09 1002.16 1001.43 1000.76 999.89 999.56 998.53 999.52 999.90 1000.36 1000.89 1001.72 1002.16 1002.65 1003.39 1003.85
1011.59 1011.72 1011.86 1011.96 1012.13 1012.24 1012.35 1012.46 1012.67 1012.92 1013.14 1013.37 1013.57 1013.70 1013.72 1013.67 1013.50 1012.33 1011.24 1011.95 1012.05 1011.83 1009.65 1005.75 1003.82 1003.66 1003.65 1003.88 1004.08 1004.24 1004.57 1004.24 1003.89 1003.12 1002.48 1002.29 1002.62 1002.57 1001.26 1000.30 999.91 999.77 1000.09 1000.01 999.88 1000.29 1000.62 1001.26 1001.75 1002.28 1002.76 1003.47 1004.25 1004.88
1011.27 1011.36 1011.52 1011.63 1011.71 1011.79 1011.96 1012.20 1012.49 1012.72 1012.97 1013.24 1013.44 1013.55 1013.55 1013.54 1013.13 1012.27 1012.34 1012.44 1012.36 1011.93 1009.65 1006.33 1003.36 1003.24 1003.61 1003.40 1003.54 1003.78 1004.02 1003.75 1003.34 1002.62 1002.28 1001.70 1002.21 1002.59 1001.14 1000.11 1000.11 1000.10 1000.23 1000.49 1000.73 1001.20 1001.53 1001.87 1002.16 1002.85 1003.41 1004.15 1005.25 1005.86
1010.93 1011.05 1011.14 1011.22 1011.31 1011.51 1011.77 1012.05 1012.32 1012.56 1012.83 1013.07 1013.27 1013.35 1013.34 1013.31 1013.10 1012.01 1011.36 1012.35 1012.34 1011.00 1009.57 1006.88 1003.93 1002.80 1002.93 1002.09 1002.29 1002.78 1002.81 1003.26 1002.85 1001.55 1001.96 1001.51 1001.88 1001.61 1000.43 999.98 1000.03 1000.00 1000.31 1000.57 1000.92 1001.41 1001.56 1002.07 1002.85 1003.35 1003.93 1004.69 1005.48 1006.32
1010.72 1010.82 1010.94 1011.10 1011.27 1011.46 1011.71 1011.97 1012.30 1012.57 1012.78 1012.91 1013.00 1012.99 1012.85 1012.49 1011.25 1011.09 1011.69 1012.15 1012.08 1011.30 1008.46 1006.54 1004.20 1001.91 1002.41 1001.89 1001.84 1002.17 1001.50 1001.17 1001.64 1001.03 1000.77 1001.15 1000.43 1000.31 999.91 999.84 999.61 999.95 1000.24 1000.23 1001.03 1001.64 1002.15 1002.68 1003.10 1003.69 1004.16 1004.97 1005.63 1006.62
1010.63 1010.73 1010.91 1011.10 1011.34 1011.66 1011.94 1012.20 1012.39 1012.54 1012.66 1012.73 1012.77 1012.09 1010.55 1010.68 1011.77 1011.95 1011.59 1010.88 1010.72 1009.65 1008.64 1006.22 1004.61 1003.12 1002.71 1001.81 1001.12 1000.97 1000.78 999.97 1000.29 1000.09 1000.92 1000.47 999.72 999.78 999.85 999.72 999.81 999.88 1000.20 1000.63 1001.12 1001.62 1002.01 1002.59 1003.17 1003.78 1004.22 1005.01 1005.81 1006.91
1010.72 1010.87 1011.13 1011.42 1011.74 1011.99 1012.19 1012.30 1012.35 1012.35 1012.42 1012.24 1011.95 1010.75 1010.63 1011.46 1010.98 1010.02 1008.95 1008.53 1007.79 1007.33 1006.37 1005.30 1004.42 1003.51 1003.00 1002.40 1001.21 1001.27 1000.00 999.97 999.72 999.72 1000.06 999.16 999.09 999.07 999.42 999.47 999.92 1000.22 1000.43 1000.73 1001.06 1001.04 1001.65 1002.32 1003.06 1003.66 1004.38 1005.19 1006.32 1007.31
1011.42 1011.55 1011.70 1011.87 1012.02 1012.15 1012.22 1012.30 1012.16 1012.08 1011.96 1012.27 1012.03 1011.57 1011.03 1010.31 1009.11 1008.40 1007.20 1006.86 1006.43 1005.00 1004.89 1004.42 1003.95 1003.90 1003.29 1003.47 1002.17 1001.47 1000.40 1000.18 999.41 1000.10 999.72 998.84 998.60 999.09 999.43 999.52 999.70 1000.07 1000.34 1000.81 1001.13 1001.29 1001.76 1002.47 1003.37 1004.06 1004.79 1005.61 1006.63 1007.66
1012.02 1012.09 1012.15 1012.23 1012.26 1012.28 1012.29 1012.23 1012.13 1012.18 1012.24 1012.23 1011.92 1010.93 1009.80 1008.93 1008.12 1006.79 1005.46 1004.88 1004.41 1004.29 1004.15 1003.90 1003.54 1003.47 1003.53 1003.33 1002.14 1001.35 1000.54 999.74 1000.07 999.52 998.79 998.40 998.75 999.42 999.73 999.85 999.91 1000.21 1000.49 1000.76 1001.29 1001.66 1002.24 1002.99 1003.79 1004.48 1005.33 1006.20 1007.10 1008.17
1012.36 1012.40 1012.46 1012.46 1012.41 1012.30 1012.26 1012.23 1012.14 1012.16 1011.98 1011.69 1011.11 1010.27 1008.82 1006.89 1005.64 1004.48 1004.03 1003.79 1004.12 1004.25 1003.98 1003.86 1003.33 1002.83 1002.57 1002.38 1001.54 1000.77 1000.09 1000.05 999.27 998.57 998.21 998.38 998.98 999.53 999.90 1000.05 1000.22 1000.34 1000.54 1000.99 1001.45 1002.04 1002.66 1003.30 1003.98 1005.00 1005.78 1006.55 1007.40 1008.28
1012.65 1012.66 1012.64 1012.58 1012.47 1012.30 1012.18 1012.16 1012.14 1011.82 1011.76 1011.41 1010.59 1008.63 1007.06 1005.49 1005.19 1004.74 1004.82 1004.67 1004.54 1004.53 1004.27 1003.66 1003.32 1002.95 1002.10 1001.86 1001.18 1000.40 1000.19 999.22 998.51 998.18 998.07 998.66 999.72 1000.04 1000.08 1000.15 1000.16 1000.37 1000.74 1001.24 1001.79 1002.37 1003.02 1003.70 1004.45 1005.29 1006.17 1006.87 1007.64 1008.58
1012.79 1012.78 1012.73 1012.69 1012.43 1012.19 1012.14 1012.05 1012.00 1012.00 1011.65 1011.29 1010.25 1008.05 1006.72 1005.96 1004.90 1004.94 1004.73 1004.43 1004.86 1004.57 1004.32 1004.07 1003.16 1002.42 1001.64 1000.92 1000.44 999.83 999.09 998.53 998.29 998.54 999.33 999.89 1000.31 1000.42 1000.62 1000.66 1000.67 1000.73 1001.03 1001.42 1002.00 1002.58 1003.25 1003.97 1004.58 1005.47 1006.40 1007.10 1008.02 1008.74
1012.72 1012.43 1012.87 1012.61 1012.31 1012.10 1012.02 1011.96 1011.55 1011.56 1011.22 1010.26 1009.30 1008.19 1007.02 1006.22 1005.14 1004.76 1005.35 1005.01 1005.34 1004.61 1003.67 1003.75 1003.20 1002.14 1001.68 1000.57 999.89 999.25 998.93 999.65 999.86 999.89 1000.15 1000.74 1000.95 1000.99 1001.09 1001.16 1001.28 1001.39 1001.47 1001.85 1002.39 1003.04 1003.62 1004.27 1005.04 1005.76 1006.52 1007.44 1008.18 1009.14
1012.63 1012.60 1012.74 1012.56 1012.19 1012.00 1011.83 1011.62 1011.52 1011.06 1010.34 1009.56 1008.59 1007.48 1007.36 1006.85 1006.32 1006.00 1005.85 1005.91 1005.71 1005.05 1004.65 1004.08 1004.24 1002.99 1001.50 1000.34 999.83 999.96 1000.31 1000.53 1000.68 1000.89 1000.93 1001.30 1001.45 1001.59 1001.55 1001.60 1001.87 1001.99 1002.18 1002.53 1002.99 1003.43 1004.05 1004.72 1005.30 1006.05 1006.92 1007.71 1008.57 1009.38
1012.77 1012.53 1012.61 1012.49 1012.27 1011.77 1011.28 1011.51 1011.39 1010.39 1009.06 1008.47 1007.98 1007.74 1007.48 1007.02 1006.88 1006.88 1006.64 1006.43 1006.36 1006.19 1005.69 1004.55 1003.68 1002.46 1002.05 1001.95 1001.64 1001.52 1001.55 1001.56 1001.45 1001.35 1001.55 1001.71 1001.80 1001.92 1002.11 1002.29 1002.45 1002.57 1002.81 1003.05 1003.43 1003.74 1004.35 1004.86 1005.21 1006.14 1006.95 1007.79 1008.23 1008.91
1012.76 1012.66 1012.55 1012.38 1012.18 1011.35 1010.78 1010.68 1010.73 1010.23 1009.43 1008.66 1008.33 1007.66 1007.32 1006.80 1006.51 1006.59 1006.33 1006.03 1005.96 1005.70 1004.88 1003.97 1002.95 1002.21 1002.86 1002.96 1002.64 1002.58 1002.60 1002.57 1002.20 1001.51 1001.17 1001.46 1001.96 1002.34 1002.46 1002.42 1002.38 1002.92 1003.20 1003.49 1003.69 1004.12 1004.68 1005.15 1005.72 1006.33 1006.91 1007.34 1008.08 1008.73
1012.64 1012.42 1012.38 1012.07 1011.59 1011.27 1010.97 1010.77 1010.51 1010.23 1009.74 1009.18 1008.37 1007.88 1007.01 1006.60 1006.44 1006.00 1005.71 1005.75 1005.36 1004.53 1003.62 1003.07 1002.68 1002.30 1003.15 1003.59 1003.62 1003.41 1003.04 1002.88 1002.59 1002.88 1002.44 1001.95 1002.45 1002.24 1002.54 1002.53 1002.84 1002.87 1003.01 1003.20 1003.67 1004.26 1004.77 1005.18 1005.79 1006.45 1007.20 1007.51 1008.10 1008.83
1012.47 1012.66 1012.07 1012.03 1011.56 1011.37 1011.17 1011.17 1011.15 1010.73 1010.17 1008.97 1008.54 1007.82 1006.80 1006.05 1005.51 1004.99 1005.01 1004.69 1004.08 1003.27 1002.99 1002.69 1002.45 1002.49 1002.63 1003.12 1003.28 1003.66 1003.17 1003.11 1002.89 1002.93 1003.30 1002.89 1002.89 1003.26 1003.16 1002.71 1002.67 1002.65 1002.78 1003.10 1003.53 1004.17 1004.58 1005.30 1005.96 1006.53 1007.10 1007.64 1008.21 1008.62
1012.85 1012.62 1012.22 1012.14 1011.76 1011.75 1011.21 1010.81 1010.46 1009.82 1009.23 1008.56 1008.03 1007.22 1006.44 1005.80 1005.09 1005.06 1004.37 1003.24 1002.61 1002.48 1002.41 1002.43 1002.56 1002.91 1002.88 1002.86 1003.05 1003.18 1003.17 1002.77 1002.42 1002.42 1002.70 1002.34 1002.95 1003.50 1003.22 1003.27 1003.06 1002.83 1002.88 1003.29 1003.66 1004.08 1004.62 1005.52 1006.28 1006.48 1007.02 1007.75 1008.19 1008.45
1012.96 1012.50 1012.34 1011.85 1011.71 1011.42 1011.07 1010.40 1009.99 1009.35 1008.55 1007.86 1007.11 1006.16 1005.33 1004.82 1004.86 1004.32 1003.08 1002.11 1001.69 1001.84 1001.96 1002.26 1002.41 1002.35 1002.44 1002.59 1002.35 1002.17 1002.28 1002.48 1002.08 1002.20 1002.21 1002.38 1002.63 1003.17 1003.22 1003.13 1003.45 1003.61 1003.63 1003.69 1004.03 1004.25 1004.83 1005.40 1006.19 1006.53 1007.00 1007.46 1007.90 1008.26
1012.93 1012.66 1012.55 1012.08 1011.60 1011.37 1010.38 1009.95 1009.10 1008.59 1007.73 1007.10 1006.67 1005.67 1004.78 1004.93 1004.32 1003.24 1001.86 1001.10 1001.03 1001.13 1001.43 1001.71 1001.74 1001.64 1001.39 1001.16 1001.07 1001.17 1001.48 1001.63 1001.38 1001.37 1001.83 1001.83 1002.08 1002.77 1003.05 1002.97 1002.93 1003.06 1003.51 1004.11 1004.61 1004.78 1004.99 1005.11 1005.83 1006.14 1006.69 1007.19 1007.73 1008.28
1012.49 1011.73 1011.91 1010.91 1010.54 1010.49 1009.80 1008.89 1008.14 1007.55 1007.18 1006.68 1005.93 1005.16 1004.69 1004.27 1003.48 1001.83 1000.68 1000.43 1000.53 1000.91 1001.44 1001.64 1001.54 1001.39 1000.96 1000.83 1000.74 1000.43 1000.53 1000.90 1001.04 1001.19 1001.26 1001.58 1001.78 1001.87 1002.31 1002.58 1002.55 1002.89 1003.23 1003.38 1003.76 1004.34 1004.62 1004.87 1005.31 1005.83 1006.33 1007.31 1007.96 1007.74
1011.80 1011.04 1010.81 1010.31 1009.91 1010.51 1009.78 1008.72 1008.26 1007.89 1006.84 1005.89 1005.16 1004.67 1004.15 1003.43 1001.90 1000.84 1000.40 1000.62 1000.61 1000.97 1001.58 1001.92 1001.46 1000.97 1000.65 1000.30 1000.16 1000.12 1000.20 1000.10 1000.38 1000.53 1000.90 1001.61 1001.92 1002.29 1002.52 1002.61 1002.26 1002.18 1002.75 1003.10 1003.29 1003.53 1003.79 1004.28 1004.73 1005.34 1006.01 1006.85 1007.39 1007.80
1011.00 1010.59 1010.29 1010.05 1010.07 1010.00 1009.15 1008.20 1007.47 1006.52 1005.67 1005.27 1004.96 1003.77 1002.87 1001.89 1001.15 1000.64 1000.76 1001.10 1001.14 1001.18 1001.31 1001.60 1000.97 1000.31 999.85 999.57 999.67 999.57 999.71 999.72 1000.02 1000.52 1001.20 1001.64 1002.16 1002.49 1002.89 1002.86 1002.66 1003.35 1003.02 1002.93 1003.28 1003.41 1003.58 1004.05 1004.49 1004.86 1005.63 1006.19 1006.58 1006.86
1010.07 1010.04 1010.17 1009.64 1009.48 1008.96 1008.12 1007.35 1005.64 1004.20 1003.64 1003.77 1003.42 1002.72 1002.09 1001.59 1001.49 1001.41 1001.06 1001.02 1000.88 1000.74 1000.83 1000.71 999.73 999.69 999.28 999.23 999.14 998.91 998.90 999.08 999.40 1000.05 1000.73 1001.01 1001.75 1002.21 1002.61 1002.65 1003.05 1003.28 1003.22 1002.94 1003.83 1003.59 1003.94 1004.44 1004.52 1004.67 1004.99 1005.42 1005.96 1006.51
1007.77 1008.09 1008.71 1008.34 1008.05 1007.31 1005.77 1005.13 1004.02 1003.55 1003.21 1003.25 1003.23 1003.01 1002.43 1001.78 1001.48 1001.40 1001.09 1000.72 1000.52 1000.27 1000.60 1000.47 999.88 999.34 998.52 998.42 998.38 998.43 998.66 998.75 998.93 999.40 999.78 1000.31 1000.95 1001.50 1001.90 1002.42 1002.73 1003.07 1003.07 1003.07 1003.65 1004.32 1004.95 1004.71 1004.92 1004.79 1005.03 1005.19 1005.40 1005.62
1006.82 1006.83 1007.04 1006.82 1006.31 1005.41 1004.94 1004.41 1003.56 1003.07 1002.76 1002.66 1002.72 1002.73 1002.22 1001.97 1001.69 1001.18 1000.62 1000.22 1000.05 1000.04 1000.42 1000.53 999.83 998.77 998.12 997.76 998.14 998.58 999.06 999.51 999.65 1000.13 1000.38 1000.46 1000.87 1001.30 1001.64 1002.07 1002.55 1003.10 1003.20 1003.20 1003.51 1004.16 1004.49 1004.46 1004.53 1004.84 1004.95 1005.01 1005.17 1005.38
1005.78 1005.61 1005.51 1005.08 1004.46 1003.78 1003.47 1002.97 1002.57 1002.46 1002.50 1002.53 1002.29 1002.21 1002.26 1002.15 1001.52 1000.50 998.90 998.68 998.95 999.78 1000.20 1000.22 1000.02 999.31 998.82 998.00 998.25 998.92 998.65 999.29 1000.03 1000.23 1000.41 1000.57 1000.82 1000.82 1001.22 1001.77 1002.53 1002.56 1002.60 1002.76 1003.24 1003.55 1003.89 1003.91 1004.14 1004.34 1004.60 1004.84 1005.31 1005.43
1005.30 1005.17 1004.95 1004.55 1003.67 1002.87 1002.73 1002.66 1002.44 1001.85 1001.95 1001.73 1001.46 1001.49 1001.61 1001.42 1000.75 999.83 999.18 998.94 999.33 999.78 999.96 999.96 999.81 999.56 999.07 998.50 998.43 998.71 998.89 999.10 999.80 1000.11 1000.44 1000.33 1000.60 1001.01 1001.30 1001.54 1001.93 1002.30 1002.54 1002.55 1002.62 1003.08 1003.49 1003.68 1004.01 1004.26 1004.61 1004.86 1005.08 1005.23
Wind_Speed
13 14 12 11 10 10 9 9 9 9 7 7 5 2 4 6 8 6 2 1 5 5 10 8 8 8 4 4 6 7 6 7 6 7 4 5 3 4 4 4 3 4 9 7 3 8 10 11 9 9 8 8 7 5
11 11 10 9 9 9 9 9 9 9 8 7 6 3 3 4 6 8 2 1 2 6 8 9 12 15 14 10 7 4 7 5 6 5 4 2 5 3 4 3 2 5 5 7 5 2 4 14 3 5 1 10 5 6
7 8 9 8 8 8 8 9 8 8 8 8 7 4 3 3 4 6 4 3 4 5 8 6 5 4 8 17 10 3 3 5 0 4 3 3 5 0 1 5 5 4 2 5 5 6 7 10 5 2 2 7 7 7
7 8 8 8 8 8 8 9 8 8 7 8 7 4 3 4 3 5 4 2 4 5 6 2 3 2 2 9 17 15 7 3 1 3 2 2 5 2 3 3 5 6 4 6 3 4 4 6 4 5 5 7 11 13
7 8 8 8 7 8 8 8 8 7 6 8 6 4 4 4 5 8 6 4 5 6 6 7 15 2 3 9 10 14 11 4 3 1 1 1 2 4 3 4 11 9 7 8 3 7 4 7 7 7 9 11 12 14
8 8 8 8 8 8 8 8 8 7 7 7 6 5 4 4 6 5 5 4 4 4 5 5 4 2 2 5 9 11 9 6 4 2 3 1 3 3 5 8 2 6 3 7 5 3 6 5 7 8 10 11 11 14
8 8 8 8 8 8 8 8 8 7 7 7 5 4 4 3 6 4 6 5 2 3 5 6 3 6 2 5 6 6 8 4 6 4 4 5 5 4 3 7 6 2 1 1 2 5 3 7 5 9 12 13 12 15
7 6 7 7 7 7 8 7 7 6 6 4 4 5 5 5 9 6 1 13 5 5 4 5 4 4 2 5 5 5 8 8 7 4 4 6 3 4 5 6 10 8 5 5 5 5 4 7 11 13 14 16 18 16
6 5 5 5 6 6 6 7 7 5 3 3 4 5 5 5 4 4 5 10 4 5 4 3 4 3 2 2 1 6 6 7 4 7 5 3 6 6 5 8 11 8 8 5 9 6 7 11 13 15 17 18 18 17
4 5 6 6 8 11 9 7 4 2 3 4 4 5 5 4 13 9 7 6 6 5 5 5 1 4 5 0 5 3 4 4 6 5 4 6 9 11 12 13 8 6 9 8 11 11 11 12 14 17 18 16 16 16
7 10 14 13 11 9 6 3 1 2 4 3 3 2 5 4 5 5 4 5 4 5 5 4 6 6 2 5 0 1 3 4 5 5 5 5 6 7 10 11 11 7 8 10 9 6 11 12 15 16 17 16 16 16
13 13 12 10 8 6 4 3 5 2 1 1 2 2 2 4 4 5 5 4 6 4 5 5 2 4 2 2 5 3 4 4 5 5 5 5 5 1 5 7 5 9 10 12 6 5 10 13 15 15 16 16 15 15
10 10 9 8 6 4 3 4 4 2 4 1 2 3 4 5 3 6 8 5 4 5 4 3 3 3 4 5 4 4 6 6 4 5 6 5 6 4 2 3 4 8 11 12 9 9 12 16 16 17 16 15 16 15
8 9 9 8 6 4 2 2 1 2 2 1 2 3 7 6 6 5 5 1 6 1 1 3 4 4 2 5 3 5 3 2 6 8 11 7 7 4 3 4 7 9 11 12 11 12 15 17 16 16 15 15 15 15
3 2 1 9 8 5 3 2 2 3 1 2 3 6 7 2 1 1 0 4 4 2 3 4 5 4 5 4 4 3 5 6 6 8 5 5 4 1 4 4 6 8 10 10 11 13 15 17 17 16 15 14 14 14
3 3 4 9 10 6 1 2 4 1 2 2 4 5 2 6 6 5 4 3 2 3 3 4 4 4 6 4 6 7 5 5 4 4 5 3 4 3 3 4 5 7 10 10 11 13 14 16 16 16 15 14 14 13
4 2 6 9 11 4 2 1 2 3 3 4 3 5 5 5 4 3 1 1 3 6 5 3 6 3 1 5 7 4 4 6 5 3 4 6 7 5 1 4 6 8 10 11 12 13 14 15 16 16 15 13 13 12
1 1 4 8 9 1 1 1 1 3 5 3 4 3 3 4 3 3 3 1 4 2 3 2 2 4 4 4 6 5 4 4 4 5 5 6 6 2 2 5 6 8 10 12 13 14 15 16 15 12 14 13 12 11
4 6 7 5 5 3 3 3 2 3 4 1 4 3 4 4 4 5 5 4 4 3 5 4 6 5 4 2 3 4 5 6 6 7 5 5 4 1 4 6 8 10 11 13 14 11 11 13 11 11 10 11 9 10
3 2 5 5 6 2 5 3 2 3 3 0 4 5 5 5 4 5 6 6 6 7 7 6 7 5 1 2 3 4 5 5 5 6 6 5 2 4 5 6 6 10 10 12 11 10 11 10 9 9 10 9 10 10
5 3 2 4 1 3 2 2 2 1 2 3 4 5 5 5 7 8 8 8 8 7 11 10 10 9 4 2 3 6 3 5 5 5 7 4 2 1 5 5 9 9 9 10 10 10 8 9 9 9 10 10 9 9
3 2 3 0 2 2 3 3 2 1 4 2 3 4 5 5 6 7 5 8 8 10 10 10 10 9 8 8 4 5 5 5 5 2 7 4 4 4 3 5 7 7 8 8 9 10 9 9 9 10 10 10 8 8
3 3 1 1 2 0 3 3 5 4 5 3 3 4 4 4 4 3 5 8 8 8 8 9 11 12 11 10 8 8 7 6 6 4 4 4 6 4 5 4 3 5 6 7 7 8 8 10 9 10 10 10 9 7
1 2 2 3 4 3 3 4 4 4 4 6 5 5 5 4 3 5 8 8 7 6 6 7 7 8 9 12 10 11 10 8 6 4 5 6 6 6 5 6 7 6 5 5 5 7 9 9 10 10 11 10 9 8
3 3 3 3 3 4 5 5 6 6 5 8 7 7 4 3 4 5 8 4 5 5 3 4 7 8 8 8 8 10 12 10 8 7 6 6 5 5 5 5 8 8 7 8 4 4 5 9 10 11 12 11 11 9
4 5 5 5 4 6 5 4 6 8 6 5 7 3 3 5 6 7 5 5 5 4 1 3 3 4 6 8 9 9 9 10 8 9 7 7 7 7 7 8 8 8 8 8 10 12 13 12 12 14 13 10 11 12
4 6 6 5 2 2 4 6 5 2 4 6 4 5 5 6 7 4 4 4 3 2 1 3 6 6 7 7 8 9 9 10 10 8 6 6 5 4 5 4 6 5 9 10 9 11 12 12 12 12 9 8 8 9
5 3 5 4 3 4 5 5 5 6 6 5 4 7 5 6 4 1 2 3 2 4 4 5 10 8 9 9 8 8 10 9 10 7 3 4 5 4 5 3 4 3 3 6 9 8 10 11 12 13 14 13 12 11
5 4 3 5 5 5 7 7 6 5 4 5 5 6 5 4 3 3 5 6 7 7 6 8 6 7 6 6 8 9 10 10 12 14 13 9 7 6 6 4 4 2 3 4 4 4 9 4 7 11 12 11 9 10
7 7 5 5 5 7 7 9 8 8 7 7 6 7 10 10 8 8 10 9 9 9 5 8 8 8 7 8 8 9 7 8 9 8 8 8 8 6 7 6 3 0 4 4 7 8 6 8 7 8 9 8 8 8
4 4 5 5 5 7 9 10 10 11 9 10 9 11 12 7 7 10 12 12 11 8 5 6 7 6 7 8 7 8 6 5 7 5 1 3 6 6 7 6 5 5 7 9 10 10 11 11 10 10 10 10 10 8
5 9 5 5 4 6 8 7 5 2 1 4 7 6 4 3 4 5 5 7 7 6 4 4 5 3 3 3 8 6 5 8 5 3 6 5 7 9 10 10 9 11 11 11 10 11 14 12 10 10 11 12 11 9
4 5 8 8 5 3 2 4 5 4 6 5 6 6 6 3 5 3 1 3 3 3 4 3 5 5 3 3 6 5 5 5 7 7 3 6 13 9 6 6 8 9 13 12 11 12 14 12 11 13 12 11 10 8
Wind_Direction
228 211 202 213 225 236 243 248 252 268 239 235 258 289 336 353 356 321 35 7 314 294 289 255 258 269 262 236 283 60 220 210 237 229 243 145 196 56 267 3 315 238 218 200 257 239 234 149 148 218 104 106 119 136
199 193 205 216 224 235 241 245 244 258 233 222 236 257 304 351 348 322 266 136 306 258 298 307 274 271 258 264 307 318 326 300 0 244 210 138 160 176 350 299 115 249 350 342 293 44 117 170 26 94 86 129 125 153
203 205 209 218 228 238 244 243 240 246 226 215 222 243 283 325 345 332 314 338 237 268 263 238 218 209 217 233 230 280 247 335 220 342 327 179 226 160 253 267 308 210 177 285 265 146 166 184 162 168 193 113 132 142
223 220 217 222 231 239 241 233 241 225 225 210 213 230 264 297 312 307 295 1 277 288 282 88 155 210 229 172 209 221 292 228 323 298 316 254 205 287 209 276 321 338 157 224 227 141 170 186 208 145 132 125 130 133
226 222 220 224 229 236 234 237 221 209 214 202 203 218 263 294 302 278 265 255 255 289 323 309 301 356 228 190 192 214 232 262 323 263 274 230 77 162 168 145 232 203 214 224 128 121 27 85 153 154 152 145 143 138
227 225 225 228 228 235 235 220 198 205 203 192 199 220 252 294 305 271 212 164 206 222 273 282 40 182 160 180 197 196 210 220 261 194 272 126 119 242 215 225 82 157 218 15 72 51 72 90 123 153 147 143 144 146
226 227 230 230 227 227 215 191 190 199 189 188 208 233 257 276 279 278 355 34 175 218 258 284 253 122 197 167 160 181 197 207 243 197 228 247 175 239 254 253 134 63 194 164 104 133 146 184 161 149 142 138 141 136
218 229 229 223 213 192 177 180 189 184 174 196 235 259 270 270 266 249 136 194 238 268 257 277 277 217 216 187 162 181 173 194 198 229 164 219 148 236 251 241 257 260 225 216 211 214 325 139 146 147 144 149 145 141
200 203 195 180 166 165 166 151 141 150 185 240 268 281 241 217 227 71 108 145 216 297 290 250 283 53 331 191 185 183 219 195 111 218 210 215 213 224 214 248 260 233 223 234 178 183 164 168 157 155 155 155 148 143
155 152 149 144 128 116 117 121 134 195 260 267 230 230 201 100 110 153 187 187 189 194 225 258 260 257 304 323 178 200 208 190 195 193 114 230 251 252 246 246 249 228 206 175 173 179 174 169 168 165 164 156 146 145
111 110 109 110 110 109 103 92 5 283 175 202 214 250 67 127 214 212 210 227 163 222 204 239 263 270 149 282 358 263 210 182 231 164 233 226 241 228 244 241 230 220 205 202 219 206 191 178 168 163 159 151 145 145
90 96 99 99 100 100 88 27 340 218 13 21 309 264 245 223 222 229 201 173 225 246 158 236 154 231 201 278 257 179 236 199 234 125 222 238 238 277 256 246 243 215 205 201 190 169 161 157 160 158 152 146 145 138
92 93 88 83 77 74 59 48 24 62 164 178 223 200 228 173 204 223 192 194 217 176 176 200 192 221 177 221 249 237 222 216 111 204 231 247 110 160 201 218 200 194 190 179 171 148 143 146 154 154 149 144 139 142
108 93 77 57 37 22 10 346 327 202 239 201 183 217 222 186 232 207 229 356 78 230 299 304 257 231 174 198 244 229 161 186 225 226 227 229 172 180 204 183 176 173 170 163 156 150 148 151 148 150 148 145 147 146
117 108 68 24 4 349 333 301 236 206 194 216 236 222 215 280 259 156 131 213 154 326 299 259 225 257 176 223 205 243 192 229 206 232 237 70 59 240 209 186 177 168 168 163 158 153 153 149 150 149 148 149 141 140
175 189 34 352 352 344 324 212 168 220 154 234 247 251 190 235 180 194 185 177 59 314 261 242 250 221 213 219 193 210 227 221 154 71 57 53 20 337 250 204 174 158 164 159 158 154 150 154 150 141 141 137 141 146
228 101 357 346 348 330 307 182 210 187 250 215 234 260 282 322 308 117 271 83 336 271 250 261 238 207 252 223 212 214 222 55 24 21 11 10 352 346 151 152 154 157 155 150 147 150 148 143 137 140 140 145 143 146
89 25 334 343 333 252 201 164 221 238 232 201 243 181 228 281 277 224 199 246 299 305 275 312 332 264 245 224 201 83 48 23 19 2 337 357 353 23 157 143 147 150 146 146 147 143 142 144 146 142 142 141 142 142
358 342 354 345 334 286 214 168 218 260 244 245 241 220 248 262 268 287 277 261 267 292 285 239 248 242 242 14 28 38 27 19 3 346 337 311 332 153 136 143 147 146 147 144 145 149 145 155 141 144 143 156 148 152
329 334 350 345 302 244 212 170 222 249 238 312 259 242 239 261 269 247 250 232 223 222 218 220 242 249 280 68 50 28 2 347 329 338 20 59 71 155 156 160 151 144 147 145 143 136 142 138 147 148 155 149 148 145
237 60 296 291 298 306 317 349 237 247 301 269 297 266 260 226 239 237 231 230 227 227 230 233 245 252 157 151 353 306 325 327 339 337 329 8 52 148 150 155 153 165 156 151 152 142 159 153 148 148 152 154 148 153
36 298 294 149 279 208 241 183 280 336 252 277 252 246 261 239 235 224 218 223 229 233 241 249 243 244 230 221 247 239 306 298 308 286 205 161 128 131 163 162 175 166 167 160 158 163 154 149 154 153 162 154 161 162
262 242 222 313 249 184 249 192 233 206 230 213 205 227 216 224 223 143 234 232 237 246 246 241 240 251 260 266 255 254 268 281 277 272 216 115 135 167 158 163 206 180 173 160 164 163 151 134 158 164 161 162 179 175
189 260 241 239 205 242 240 216 227 233 231 219 218 237 226 214 175 233 245 248 233 233 231 231 239 235 230 229 238 232 224 241 242 250 252 195 184 166 179 175 179 179 202 152 172 166 153 166 155 170 169 178 182 190
240 214 204 240 219 252 223 224 217 215 235 215 221 240 210 186 233 246 242 224 211 210 209 212 225 233 241 239 227 221 216 229 233 235 214 225 188 147 173 186 177 183 178 147 140 160 172 165 177 183 182 187 181 196
252 190 199 208 207 213 225 253 212 213 220 220 225 227 215 231 242 246 236 226 196 177 194 274 259 263 247 231 244 238 218 214 220 230 212 204 197 191 165 167 166 174 188 193 174 185 186 184 182 188 193 175 203 216
243 231 215 240 233 120 259 248 239 276 264 220 220 209 208 222 233 232 193 187 207 123 340 283 276 271 272 271 259 231 235 218 206 228 218 195 198 194 176 177 161 145 175 197 206 200 194 189 187 190 184 185 189 199
247 274 232 199 212 234 256 228 223 218 228 201 233 212 227 209 241 60 47 144 273 278 293 282 263 264 273 272 246 226 211 215 194 203 147 181 171 154 163 164 110 56 278 199 207 205 202 191 194 190 186 191 202 214
230 196 193 231 215 228 215 221 256 234 216 204 238 239 227 217 305 282 303 305 299 292 297 294 287 305 280 235 221 213 203 193 187 190 195 196 186 189 181 144 121 114 240 202 200 237 187 163 190 197 196 196 195 197
242 167 215 213 205 218 235 208 243 245 243 235 259 275 272 271 280 293 291 283 275 275 273 288 302 282 248 200 190 189 186 196 190 197 201 191 204 153 150 149 140 108 288 213 173 165 127 159 138 165 174 179 188 187
271 215 236 223 248 244 237 258 266 265 256 247 229 238 258 284 284 273 266 257 252 248 248 268 290 274 237 171 173 170 158 185 201 137 146 74 126 158 159 176 164 207 227 190 171 167 169 169 169 173 186 186 178 197
236 223 249 255 239 246 246 252 263 240 325 296 271 254 252 239 253 266 255 218 204 201 219 256 281 299 284 158 139 107 62 129 163 172 147 177 223 195 184 168 178 192 188 177 168 170 176 171 173 176 172 170 168 192
222 241 251 269 259 279 233 203 214 217 188 214 220 216 219 221 236 265 287 316 151 169 220 236 256 273 335 48 82 96 88 111 37 28 350 134 136 142 137 156 156 163 168 177 167 164 172 171 168 166 166 174 186 194